Starlink 33584

operational
NORAD ID: 62761 Int'l Des: 2025-015 Owner: SPXS Country: US Constellation: starlink
LEOCIRCULAR

About Starlink 33584

Description loading...

Live Position

Loading 3D Globe...

Upcoming Passes

Altitude History

Altitude vs Time

uPlot chart will show altitude changes over time

Two-Line Element Set

1 62761U 25015D 26036.23741465 .00037808 00000-0 12811-2 0 9995
2 62761 53.1575 113.1195 0001673 92.6697 267.4495 15.30225791 59519
Epoch: Feb 5, 2026 • Age: 8 hours

Current Status

Altitude 489.3 km
Velocity 7.62 km/s
Sub-Earth Point -40.26°S, 97.29°E
Launch Date Jan 21, 2025
Age 1 years
Type internet

Technical Details

Classification Payload
Mass 575.00 kg
Dry Mass 530.00 kg
Total Mass 575.00 kg
Length 0.30 m
Diameter 4.10 m
Span 29.00 m
Shape Box + pan
Manufacturer SPXS
Bus Type Starlink V2MO
Phase Status In Orbit
Owner/State SPXS/US

Large Constellations

Loading constellations...